Weather History for Billings, MT

Change the Weather History Date:

Friday, January 18, 2013

  Actual Average Record
Temperature  
Mean Temperature 45 °F 27 °F  
Max Temperature 56 °F 37 °F 62 °F (2009)
Min Temperature 33 °F 18 °F -25 °F (1943)
Degree Days  
Heating Degree Days 20 38  
Month to date heating degree days 668 691  
Since 1 July heating degree days 3209 3512  
Cooling Degree Days 0 0  
Month to date cooling degree days 0 0  
Year to date cooling degree days 0 0  
Moisture  
Dew Point 17 °F    
Average Humidity 36    
Maximum Humidity 51    
Minimum Humidity 20    
Precipitation  
Precipitation 0.00 in 0.02 in 0.44 in (1972)
Month to date precipitation 0.39 0.28  
Year to date precipitation 0.39 0.28  
Snow  
Snow 0.00 in 0.30 in 9.60 in (2012)
Month to date snowfall 7.4 5.1  
Since 1 July snowfall 23.7 25.0  
Snow Depth 1.00 in    
Sea Level Pressure  
Sea Level Pressure 29.99 in    
Wind  
Wind Speed 18 mph (WSW)    
Max Wind Speed 35 mph    
Max Gust Speed 42 mph    
Visibility 10 miles    
Events      
T = Trace of Precipitation, MM = Missing Value Source: NWS Daily Summary

Daily Weather History Graph

Daily Weather History Graph

Search for Another Location

Airport:

Trip Planner

Search our weather history database for the weather conditions in past years. The results will help you decide how hot, cold, wet, or windy it might be!

Date:

Astronomy

Jan. 18, 2013 Rise Set
Actual Time 7:49 AM MST 5:00 PM MST
Civil Twilight 7:16 AM MST 5:33 PM MST
Nautical Twilight 6:39 AM MST 6:10 PM MST
Astronomical Twilight 6:04 AM MST 6:45 PM MST
Moon 11:03 AM MST (1/18) 12:19 AM MST (1/18)
Length of Visible Light 10h 17m
Length of Day
9h 11m
Waxing Crescent, 48% of the Moon is Illuminated
Jan 18
Waxing Crescent
Jan 18
First Quarter
Jan 26
Full
Feb 3
Last Quarter
Feb 10
New

Hourly Weather History & Observations

Time (MST) Temp. Windchill Dew Point Humidity Pressure Visibility Wind Dir Wind Speed Gust Speed Precip Events Conditions
12:53 AM 36.0 °F 24.4 °F 17.1 °F 46% 30.08 in 10.0 mi WSW 23.0 mph - N/A   Clear
1:53 AM 34.0 °F 22.7 °F 17.1 °F 50% 30.08 in 10.0 mi SW 19.6 mph - N/A   Clear
2:53 AM 35.1 °F 23.3 °F 17.1 °F 48% 30.06 in 10.0 mi WSW 23.0 mph - N/A   Clear
3:53 AM 35.1 °F 24.5 °F 17.1 °F 48% 30.05 in 10.0 mi WSW 18.4 mph - N/A   Clear
4:53 AM 35.1 °F 23.5 °F 16.0 °F 46% 30.03 in 10.0 mi SW 21.9 mph 28.8 mph N/A   Clear
5:53 AM 35.1 °F 23.5 °F 17.1 °F 48% 30.01 in 10.0 mi WSW 21.9 mph - N/A   Clear
6:53 AM 34.0 °F 22.7 °F 16.0 °F 48% 30.03 in 10.0 mi WSW 19.6 mph - N/A   Clear
7:53 AM 33.1 °F 20.3 °F 16.0 °F 50% 30.03 in 10.0 mi WSW 24.2 mph - N/A   Scattered Clouds
8:53 AM 34.0 °F 22.7 °F 16.0 °F 48% 30.04 in 10.0 mi WSW 19.6 mph - N/A   Scattered Clouds
9:53 AM 37.9 °F 27.3 °F 17.1 °F 43% 30.03 in 10.0 mi SW 21.9 mph - N/A   Scattered Clouds
10:53 AM 39.9 °F 30.2 °F 18.0 °F 41% 30.00 in 10.0 mi WSW 20.7 mph - N/A   Mostly Cloudy
11:53 AM 41.0 °F 31.6 °F 18.0 °F 40% 29.97 in 10.0 mi WSW 20.7 mph - N/A   Mostly Cloudy
12:53 PM 46.0 °F 38.8 °F 19.9 °F 35% 29.93 in 10.0 mi WSW 18.4 mph - N/A   Scattered Clouds
1:53 PM 55.0 °F - 16.0 °F 22% 29.89 in 10.0 mi West 26.5 mph 34.5 mph N/A   Scattered Clouds
1:55 PM 55.0 °F - 16.0 °F 22% 29.88 in 10.0 mi West 29.9 mph 38.0 mph N/A   Scattered Clouds
2:46 PM 46.0 °F 38.8 °F 19.0 °F 34% 29.89 in 10.0 mi SW 18.4 mph 32.2 mph N/A   Mostly Cloudy
2:53 PM 45.0 °F 37.4 °F 19.0 °F 36% 29.93 in 10.0 mi SW 18.4 mph - N/A   Mostly Cloudy
3:53 PM 43.0 °F 35.7 °F 19.9 °F 40% 29.94 in 10.0 mi WSW 15.0 mph - N/A   Scattered Clouds
4:53 PM 46.0 °F 39.9 °F 17.1 °F 31% 29.94 in 10.0 mi WSW 13.8 mph - N/A   Scattered Clouds
5:53 PM 46.0 °F 41.0 °F 19.0 °F 34% 29.94 in 10.0 mi West 10.4 mph - N/A   Mostly Cloudy
6:53 PM 45.0 °F 38.2 °F 17.1 °F 33% 29.94 in 10.0 mi WSW 15.0 mph - N/A   Mostly Cloudy
7:53 PM 45.0 °F 39.3 °F 18.0 °F 34% 29.97 in 10.0 mi West 11.5 mph - N/A   Mostly Cloudy
8:53 PM 45.0 °F 39.3 °F 17.1 °F 33% 30.00 in 10.0 mi WNW 11.5 mph - N/A   Scattered Clouds
9:53 PM 41.0 °F 35.2 °F 18.0 °F 40% 30.02 in 10.0 mi SW 9.2 mph - N/A   Clear
10:53 PM 42.1 °F 35.2 °F 17.1 °F 37% 30.04 in 10.0 mi WNW 12.7 mph - N/A   Clear
11:53 PM 42.1 °F 34.9 °F 16.0 °F 35% 30.04 in 10.0 mi West 13.8 mph - N/A   Clear